Dades meteomassalio
Diari Summary for Abril 17, 2017 Units:  English    Metric   Both
« Previous Day
Next Day »
Diari Semanal Mensual Anual Personalitzat
  Maxima: Minima: Mijana:
Temperatura: TemperatureC °F 5.6 °F 16 °F
Rosada: DewpointC °F 2.4 °F 6.6 °F
Humitat: Humidity % 28 % 57 %
Velocitat del vent: WindSpeedKMH mph 0.0 mph 3 mph
Racha vent: WindSpeedGustKMH mph - -
Vent:- - East
Pressio: PressurehPa in 1014.1 in -
Pluja: 0.0 in    
Historical Graphs
 
 
Tabular Data for Abril 17, 2017
Time Temperature Dew Point Pressure Wind Wind Speed Wind Gust Humidity Rainfall Rate (Hourly) solar Conditions
TemperatureC °F DewpointC °F PressurehPa in Calm     Humidity % HourlyPrecipMM in SolarRadiationWatts/m^2 W/m2 Conditions
00:04 11.6 °F 4.5 °F 1019.9 in Calm     62 % 0.0 in 0.0 W/m2 CLR
00:09 11.5 °F 4.4 °F 1019.9 in Calm     62 % 0.0 in 0.0 W/m2 CLR
00:14 11.4 °F 4.7 °F 1019.9 in Calm     63 % 0.0 in 0.0 W/m2 CLR
00:19 11.4 °F 4.6 °F 1019.9 in Calm     63 % 0.0 in 0.0 W/m2 CLR
00:24 11.3 °F 4.6 °F 1019.9 in SSW 1.9 mph   63 % 0.0 in 0.0 W/m2 CLR
00:29 11.2 °F 4.4 °F 1019.9 in Calm     63 % 0.0 in 0.0 W/m2 CLR
00:34 11.1 °F 4.6 °F 1019.9 in Calm     64 % 0.0 in 0.0 W/m2 CLR
00:39 11.1 °F 4.5 °F 1019.9 in Calm     64 % 0.0 in 0.0 W/m2 CLR
00:44 11.0 °F 4.4 °F 1019.9 in Calm     64 % 0.0 in 0.0 W/m2 CLR
00:49 10.9 °F 4.6 °F 1019.9 in WSW 5.6 mph 5.6 mph 65 % 0.0 in 0.0 W/m2 CLR
00:54 10.9 °F 4.3 °F 1019.9 in Calm     64 % 0.0 in 0.0 W/m2 CLR
00:59 10.9 °F 4.3 °F 1020.2 in Calm     64 % 0.0 in 0.0 W/m2 CLR
01:04 10.9 °F 4.3 °F 1020.2 in Calm     64 % 0.0 in 0.0 W/m2 CLR
01:09 10.7 °F 4.4 °F 1020.2 in Calm     65 % 0.0 in 0.0 W/m2 CLR
01:14 10.6 °F 4.2 °F 1020.2 in Calm     65 % 0.0 in 0.0 W/m2 CLR
01:19 10.4 °F 4.3 °F 1020.2 in Calm     66 % 0.0 in 0.0 W/m2 CLR
01:29 10.3 °F 4.3 °F 1020.2 in Calm     66 % 0.0 in 0.0 W/m2 CLR
01:34 10.2 °F 4.4 °F 1020.2 in Calm     67 % 0.0 in 0.0 W/m2 CLR
01:39 10.1 °F 4.3 °F 1020.2 in Calm     67 % 0.0 in 0.0 W/m2 CLR
01:45 9.9 °F 4.3 °F 1020.2 in Calm     68 % 0.0 in 0.0 W/m2 CLR
01:50 9.8 °F 4.2 °F 1020.2 in Calm     68 % 0.0 in 0.0 W/m2 CLR
01:55 9.6 °F 4.2 °F 1020.2 in WSW 3.7 mph 3.7 mph 69 % 0.0 in 0.0 W/m2 CLR
02:00 9.5 °F 4.1 °F 1020.2 in WSW 5.6 mph 5.6 mph 69 % 0.0 in 0.0 W/m2 CLR
02:05 9.6 °F 4.0 °F 1020.2 in SW 3.7 mph   68 % 0.0 in 0.0 W/m2 CLR
02:10 9.6 °F 4.2 °F 1020.2 in Calm     69 % 0.0 in 0.0 W/m2 CLR
02:15 9.4 °F 4.0 °F 1020.2 in Calm     69 % 0.0 in 0.0 W/m2 CLR
02:20 9.3 °F 3.9 °F 1020.2 in Calm     69 % 0.0 in 0.0 W/m2 CLR
02:25 9.1 °F 3.9 °F 1020.2 in Calm     70 % 0.0 in 0.0 W/m2 CLR
02:30 8.9 °F 3.9 °F 1019.9 in Calm     71 % 0.0 in 0.0 W/m2 CLR
02:35 8.7 °F 3.7 °F 1019.9 in Calm     71 % 0.0 in 0.0 W/m2 CLR
02:40 8.4 °F 3.7 °F 1019.9 in Calm     72 % 0.0 in 0.0 W/m2 CLR
02:45 8.3 °F 3.6 °F 1019.9 in Calm     72 % 0.0 in 0.0 W/m2 CLR
02:50 8.3 °F 3.6 °F 1019.9 in Calm     72 % 0.0 in 0.0 W/m2 CLR
02:55 8.4 °F 3.6 °F 1019.9 in Calm     72 % 0.0 in 0.0 W/m2 CLR
03:00 8.3 °F 3.6 °F 1019.9 in Calm     72 % 0.0 in 0.0 W/m2 CLR
03:05 8.2 °F 3.4 °F 1019.9 in Calm     72 % 0.0 in 0.0 W/m2 CLR
03:10 8.0 °F 3.4 °F 1019.9 in Calm     73 % 0.0 in 0.0 W/m2 CLR
03:20 7.9 °F 3.4 °F 1019.5 in Calm     73 % 0.0 in 0.0 W/m2 CLR
03:25 7.9 °F 3.3 °F 1019.5 in Calm     73 % 0.0 in 0.0 W/m2 CLR
03:30 7.8 °F 3.3 °F 1019.5 in Calm     73 % 0.0 in 0.0 W/m2 CLR
03:35 7.7 °F 3.4 °F 1019.5 in Calm     74 % 0.0 in 0.0 W/m2 CLR
03:40 7.6 °F 3.3 °F 1019.5 in Calm     74 % 0.0 in 0.0 W/m2 CLR
03:45 7.6 °F 3.4 °F 1019.5 in Calm     75 % 0.0 in 0.0 W/m2 CLR
03:50 7.6 °F 3.2 °F 1019.5 in Calm     74 % 0.0 in 0.0 W/m2 CLR
03:55 7.6 °F 3.3 °F 1019.5 in Calm     74 % 0.0 in 0.0 W/m2 CLR
04:00 7.6 °F 3.3 °F 1019.5 in Calm     74 % 0.0 in 0.0 W/m2 CLR
04:05 7.6 °F 3.3 °F 1019.5 in Calm     74 % 0.0 in 0.0 W/m2 CLR
04:10 7.7 °F 3.3 °F 1019.5 in Calm     74 % 0.0 in 0.0 W/m2 CLR
04:15 7.7 °F 3.2 °F 1019.5 in Calm     73 % 0.0 in 0.0 W/m2 CLR
04:20 7.6 °F 3.3 °F 1019.5 in Calm     74 % 0.0 in 0.0 W/m2 CLR
04:25 7.5 °F 3.2 °F 1019.5 in Calm     74 % 0.0 in 0.0 W/m2 CLR
04:30 7.4 °F 3.2 °F 1019.2 in Calm     75 % 0.0 in 0.0 W/m2 CLR
04:35 7.3 °F 3.1 °F 1019.2 in Calm     75 % 0.0 in 0.0 W/m2 CLR
04:40 7.1 °F 3.0 °F 1019.2 in Calm     75 % 0.0 in 0.0 W/m2 CLR
04:45 7.1 °F 3.1 °F 1019.2 in Calm     76 % 0.0 in 0.0 W/m2 CLR
04:50 7.0 °F 3.1 °F 1019.2 in Calm     76 % 0.0 in 0.0 W/m2 CLR
04:55 7.0 °F 3.1 °F 1019.2 in Calm     76 % 0.0 in 0.0 W/m2 CLR
05:00 7.0 °F 2.9 °F 1019.2 in Calm     75 % 0.0 in 0.0 W/m2 CLR
05:05 6.8 °F 2.9 °F 1019.2 in Calm     76 % 0.0 in 0.0 W/m2 CLR
05:10 6.8 °F 3.0 °F 1019.2 in Calm     77 % 0.0 in 0.0 W/m2 CLR
05:15 6.8 °F 3.1 °F 1019.2 in Calm     77 % 0.0 in 0.0 W/m2 CLR
05:20 6.8 °F 3.0 °F 1019.2 in Calm     77 % 0.0 in 0.0 W/m2 CLR
05:25 6.8 °F 3.0 °F 1019.2 in Calm     77 % 0.0 in 0.0 W/m2 CLR
05:30 6.8 °F 3.0 °F 1019.2 in Calm     77 % 0.0 in 0.0 W/m2 CLR
05:35 6.7 °F 2.9 °F 1019.2 in Calm     77 % 0.0 in 0.0 W/m2 CLR
05:40 6.7 °F 2.9 °F 1019.2 in Calm     77 % 0.0 in 0.0 W/m2 CLR
05:45 6.6 °F 3.0 °F 1019.2 in Calm     78 % 0.0 in 0.0 W/m2 CLR
05:50 6.5 °F 2.9 °F 1019.2 in Calm     78 % 0.0 in 0.0 W/m2 CLR
05:55 6.4 °F 2.9 °F 1019.2 in Calm     78 % 0.0 in 0.0 W/m2 CLR
06:00 6.3 °F 2.8 °F 1019.2 in Calm     78 % 0.0 in 0.0 W/m2 CLR
06:05 6.3 °F 2.9 °F 1019.2 in Calm     79 % 0.0 in 0.0 W/m2 CLR
06:10 6.2 °F 2.8 °F 1019.2 in Calm     79 % 0.0 in 0.0 W/m2 CLR
06:15 6.2 °F 2.8 °F 1019.2 in Calm     79 % 0.0 in 0.0 W/m2 CLR
06:20 6.1 °F 2.7 °F 1019.2 in Calm     79 % 0.0 in 0.0 W/m2 CLR
06:25 5.9 °F 2.8 °F 1019.2 in Calm     80 % 0.0 in 0.0 W/m2 CLR
06:30 5.9 °F 2.7 °F 1019.2 in Calm     80 % 0.0 in 0.0 W/m2 CLR
06:35 5.9 °F 2.7 °F 1019.2 in Calm     80 % 0.0 in 0.0 W/m2 CLR
06:42 5.8 °F 2.6 °F 1019.2 in Calm     80 % 0.0 in 0.0 W/m2 CLR
06:47 5.6 °F 2.4 °F 1019.2 in Calm     80 % 0.0 in 0.0 W/m2 CLR
06:52 5.6 °F 2.6 °F 1019.2 in SW 5.6 mph 5.6 mph 81 % 0.0 in 0.0 W/m2 CLR
06:57 5.6 °F 2.6 °F 1019.2 in Calm     81 % 0.0 in 0.0 W/m2 CLR
07:02 5.7 °F 2.7 °F 1019.2 in Calm   1.9 mph 81 % 0.0 in 0.0 W/m2 CLR
07:07 5.7 °F 2.7 °F 1019.2 in Calm     81 % 0.0 in 0.0 W/m2 CLR
07:12 5.8 °F 2.8 °F 1019.2 in Calm     81 % 0.0 in 0.0 W/m2 OVC
07:17 5.7 °F 2.7 °F 1019.5 in Calm     81 % 0.0 in 5.0 W/m2 OVC
07:22 5.8 °F 2.8 °F 1019.5 in Calm     81 % 0.0 in 7.0 W/m2 OVC
07:27 5.9 °F 2.7 °F 1019.5 in Calm     80 % 0.0 in 11.0 W/m2 BKN
07:32 5.9 °F 2.7 °F 1019.5 in Calm     80 % 0.0 in 14.0 W/m2 BKN
07:37 6.0 °F 2.8 °F 1019.5 in SW 4.8 mph 4.8 mph 80 % 0.0 in 18.0 W/m2 BKN
07:42 6.0 °F 2.6 °F 1019.5 in Calm     79 % 0.0 in 21.0 W/m2 BKN
07:47 6.0 °F 2.8 °F 1019.5 in Calm     80 % 0.0 in 26.0 W/m2 BKN
07:52 6.1 °F 2.9 °F 1019.9 in Calm     80 % 0.0 in 33.0 W/m2 BKN
07:57 6.3 °F 3.1 °F 1019.9 in Calm     80 % 0.0 in 46.0 W/m2 BKN
08:02 6.6 °F 3.4 °F 1019.9 in Calm     80 % 0.0 in 51.0 W/m2 SCT
08:07 6.9 °F 3.6 °F 1019.9 in Calm     79 % 0.0 in 60.0 W/m2 SCT
08:12 7.4 °F 3.8 °F 1019.9 in Calm     78 % 0.0 in 69.0 W/m2 FEW
08:17 7.8 °F 3.8 °F 1019.9 in Calm     76 % 0.0 in 97.0 W/m2 CLR
08:22 7.9 °F 3.9 °F 1019.9 in Calm     76 % 0.0 in 113.0 W/m2 CLR
08:27 8.1 °F 3.9 °F 1019.9 in Calm     75 % 0.0 in 128.0 W/m2 CLR
08:32 8.4 °F 4.0 °F 1019.9 in Calm     74 % 0.0 in 144.0 W/m2 CLR
08:37 8.9 °F 4.1 °F 1019.9 in Calm     72 % 0.0 in 167.0 W/m2 CLR
08:42 9.2 °F 4.2 °F 1019.9 in Calm     71 % 0.0 in 185.0 W/m2 CLR
08:47 9.5 °F 4.3 °F 1019.9 in Calm     70 % 0.0 in 204.0 W/m2 CLR
08:52 10.1 °F 4.6 °F 1019.9 in Calm     69 % 0.0 in 220.0 W/m2 CLR
08:57 10.5 °F 4.6 °F 1019.9 in Calm     67 % 0.0 in 237.0 W/m2 CLR
09:02 10.8 °F 4.7 °F 1019.9 in Calm     66 % 0.0 in 114.0 W/m2 CLR
09:07 11.1 °F 4.9 °F 1019.9 in Calm     66 % 0.0 in 148.0 W/m2 CLR
09:12 11.4 °F 5.1 °F 1019.5 in Calm     65 % 0.0 in 290.0 W/m2 CLR
09:17 11.9 °F 5.1 °F 1019.5 in Calm     63 % 0.0 in 308.0 W/m2 CLR
09:22 12.3 °F 5.4 °F 1019.5 in Calm     63 % 0.0 in 323.0 W/m2 CLR
09:27 12.6 °F 5.5 °F 1019.5 in Calm     62 % 0.0 in 343.0 W/m2 CLR
09:32 12.9 °F 6.1 °F 1019.5 in Calm     63 % 0.0 in 329.0 W/m2 CLR
09:37 13.3 °F 6.2 °F 1019.5 in Calm     62 % 0.0 in 373.0 W/m2 CLR
09:42 13.7 °F 6.3 °F 1019.5 in Calm     61 % 0.0 in 390.0 W/m2 CLR
09:47 14.3 °F 6.6 °F 1019.5 in Calm     60 % 0.0 in 410.0 W/m2 CLR
09:52 14.8 °F 6.4 °F 1019.5 in Calm     57 % 0.0 in 425.0 W/m2 CLR
09:57 15.6 °F 6.1 °F 1019.5 in Calm     53 % 0.0 in 443.0 W/m2 CLR
10:02 16.1 °F 5.9 °F 1019.5 in Calm     51 % 0.0 in 462.0 W/m2 CLR
10:07 16.3 °F 6.2 °F 1019.2 in Calm     51 % 0.0 in 490.0 W/m2 CLR
10:12 16.8 °F 6.3 °F 1019.2 in East 3.7 mph 3.7 mph 50 % 0.0 in 520.0 W/m2 CLR
10:17 17.3 °F 5.9 °F 1019.5 in ENE 3.7 mph 3.7 mph 47 % 0.0 in 550.0 W/m2 CLR
10:22 17.6 °F 5.5 °F 1019.2 in Calm     45 % 0.0 in 566.0 W/m2 CLR
10:27 17.8 °F 5.4 °F 1019.2 in ENE 5.6 mph 5.6 mph 44 % 0.0 in 403.0 W/m2 CLR
10:32 17.9 °F 5.2 °F 1019.2 in ENE 11.1 mph 11.1 mph 43 % 0.0 in 519.0 W/m2 CLR
10:37 17.9 °F 5.2 °F 1019.2 in ENE 5.6 mph 5.6 mph 43 % 0.0 in 329.0 W/m2 CLR
10:42 18.0 °F 5.6 °F 1019.2 in East 5.6 mph 5.6 mph 44 % 0.0 in 513.0 W/m2 CLR
10:47 18.2 °F 5.1 °F 1019.2 in ENE 5.6 mph 5.6 mph 42 % 0.0 in 640.0 W/m2 CLR
10:52 18.3 °F 5.2 °F 1019.2 in ENE 13.0 mph 13.0 mph 42 % 0.0 in 707.0 W/m2 CLR
10:57 18.5 °F 5.7 °F 1019.2 in ENE 9.7 mph 9.7 mph 43 % 0.0 in 749.0 W/m2 CLR
11:02 18.6 °F 5.4 °F 1019.2 in NE 9.3 mph 9.3 mph 42 % 0.0 in 489.0 W/m2 CLR
11:07 18.3 °F 5.2 °F 1019.2 in ENE 7.4 mph 7.4 mph 42 % 0.0 in 489.0 W/m2 CLR
11:12 18.2 °F 5.8 °F 1019.2 in NE 13.0 mph 13.0 mph 44 % 0.0 in 267.0 W/m2 CLR
11:17 18.0 °F 5.6 °F 1019.2 in ENE 7.4 mph 7.4 mph 44 % 0.0 in 211.0 W/m2 CLR
11:22 17.8 °F 5.7 °F 1019.2 in East 5.6 mph 5.6 mph 45 % 0.0 in 290.0 W/m2 CLR
11:27 18.2 °F 6.1 °F 1019.2 in East 5.6 mph 5.6 mph 45 % 0.0 in 772.0 W/m2 CLR
11:32 18.9 °F 6.1 °F 1019.2 in ESE 6.4 mph 6.4 mph 43 % 0.0 in 816.0 W/m2 CLR
11:37 19.2 °F 6.3 °F 1019.2 in ENE 5.6 mph 5.6 mph 43 % 0.0 in 747.0 W/m2 CLR
11:42 19.1 °F 5.9 °F 1019.2 in East 5.6 mph 5.6 mph 42 % 0.0 in 450.0 W/m2 CLR
11:47 18.9 °F 6.1 °F 1019.2 in ENE 9.3 mph 9.3 mph 43 % 0.0 in 346.0 W/m2 CLR
11:52 18.9 °F 6.1 °F 1019.2 in ENE 4.8 mph 4.8 mph 43 % 0.0 in 308.0 W/m2 CLR
11:57 19.2 °F 6.3 °F 1019.2 in ESE 9.3 mph 9.3 mph 43 % 0.0 in 861.0 W/m2 CLR
12:02 19.4 °F 6.1 °F 1019.2 in Calm     42 % 0.0 in 861.0 W/m2 CLR
12:07 19.5 °F 5.9 °F 1019.2 in ESE 5.6 mph 5.6 mph 41 % 0.0 in 835.0 W/m2 CLR
12:12 19.6 °F 5.9 °F 1018.8 in ENE 7.4 mph 7.4 mph 41 % 0.0 in 835.0 W/m2 CLR
12:17 19.7 °F 5.7 °F 1018.8 in East 9.3 mph 9.3 mph 40 % 0.0 in 1000.0 W/m2 CLR
12:22 19.8 °F 6.2 °F 1018.8 in ENE 9.3 mph 9.3 mph 41 % 0.0 in 548.0 W/m2 CLR
12:27 19.9 °F 5.9 °F 1018.8 in East 5.6 mph 5.6 mph 40 % 0.0 in 571.0 W/m2 CLR
12:32 19.9 °F 6.3 °F 1018.5 in NE 11.1 mph 11.1 mph 41 % 0.0 in 645.0 W/m2 CLR
12:37 20.2 °F 5.8 °F 1018.5 in ENE 7.4 mph 7.4 mph 39 % 0.0 in 496.0 W/m2 CLR
12:42 20.2 °F 6.1 °F 1018.5 in Calm     40 % 0.0 in 916.0 W/m2 CLR
12:47 20.3 °F 5.9 °F 1018.5 in NE 9.3 mph 9.3 mph 39 % 0.0 in 893.0 W/m2 CLR
12:52 20.7 °F 5.5 °F 1018.5 in NE 5.6 mph 5.6 mph 37 % 0.0 in 874.0 W/m2 CLR
12:57 21.0 °F 5.7 °F 1018.2 in NE 11.1 mph 11.1 mph 37 % 0.0 in 875.0 W/m2 CLR
13:02 21.2 °F 5.1 °F 1018.2 in NE 11.1 mph 11.1 mph 35 % 0.0 in 868.0 W/m2 CLR
13:07 21.2 °F 5.2 °F 1018.2 in SE 3.7 mph 3.7 mph 35 % 0.0 in 865.0 W/m2 CLR
13:12 21.2 °F 4.7 °F 1018.2 in Calm   0.3 mph 34 % 0.0 in 867.0 W/m2 CLR
13:17 21.4 °F 4.9 °F 1018.2 in ENE 9.3 mph 9.3 mph 34 % 0.0 in 867.0 W/m2 CLR
13:22 21.6 °F 4.6 °F 1017.8 in Calm     33 % 0.0 in 868.0 W/m2 CLR
13:27 21.8 °F 4.8 °F 1017.8 in Calm     33 % 0.0 in 872.0 W/m2 CLR
13:32 22.0 °F 4.1 °F 1017.8 in ENE 9.3 mph 9.3 mph 31 % 0.0 in 874.0 W/m2 CLR
13:37 22.1 °F 4.1 °F 1017.8 in NNE 3.7 mph 3.7 mph 31 % 0.0 in 875.0 W/m2 CLR
13:42 22.2 °F 4.2 °F 1017.8 in North 9.3 mph   31 % 0.0 in 877.0 W/m2 CLR
13:47 22.2 °F 4.7 °F 1017.5 in Calm     32 % 0.0 in 879.0 W/m2 CLR
13:52 22.6 °F 4.6 °F 1017.5 in North 9.3 mph 9.3 mph 31 % 0.0 in 881.0 W/m2 CLR
13:57 22.6 °F 5.0 °F 1017.5 in ENE 7.4 mph 7.4 mph 32 % 0.0 in 881.0 W/m2 CLR
14:02 22.6 °F 4.6 °F 1017.2 in North 9.3 mph   31 % 0.0 in 882.0 W/m2 CLR
14:08 22.7 °F 5.2 °F 1017.2 in Calm     32 % 0.0 in 881.0 W/m2 CLR
14:13 23.0 °F 4.9 °F 1017.2 in NE 13.0 mph 13.0 mph 31 % 0.0 in 881.0 W/m2 CLR
14:18 23.1 °F 4.6 °F 1017.2 in NNE 11.1 mph 11.1 mph 30 % 0.0 in 877.0 W/m2 CLR
14:23 23.1 °F 4.6 °F 1016.8 in NNE 14.8 mph 14.8 mph 30 % 0.0 in 877.0 W/m2 CLR
14:28 23.4 °F 4.3 °F 1016.8 in NE 14.8 mph 14.8 mph 29 % 0.0 in 875.0 W/m2 CLR
14:33 23.7 °F 4.1 °F 1016.8 in NNE 8.0 mph 8.0 mph 28 % 0.0 in 872.0 W/m2 CLR
14:38 23.6 °F 4.0 °F 1016.8 in ENE 11.1 mph 11.1 mph 28 % 0.0 in 870.0 W/m2 CLR
14:43 23.6 °F 4.5 °F 1016.5 in Calm     29 % 0.0 in 865.0 W/m2 CLR
14:53 24.1 °F 4.9 °F 1016.5 in NNE 7.4 mph 7.4 mph 29 % 0.0 in 854.0 W/m2 CLR
14:58 24.3 °F 4.7 °F 1016.5 in NE 14.8 mph 14.8 mph 28 % 0.0 in 851.0 W/m2 CLR
15:03 24.4 °F 5.2 °F 1016.5 in NNE 5.6 mph 5.6 mph 29 % 0.0 in 844.0 W/m2 CLR
15:08 24.8 °F 5.6 °F 1016.1 in North 11.1 mph 11.1 mph 29 % 0.0 in 842.0 W/m2 CLR
15:13 25.0 °F 5.2 °F 1016.1 in NE 5.6 mph   28 % 0.0 in 833.0 W/m2 CLR
15:18 24.9 °F 5.7 °F 1016.1 in NE 7.4 mph 7.4 mph 29 % 0.0 in 830.0 W/m2 CLR
15:23 25.0 °F 5.2 °F 1016.1 in East 13.0 mph 13.0 mph 28 % 0.0 in 823.0 W/m2 CLR
15:28 24.7 °F 5.5 °F 1015.8 in Calm     29 % 0.0 in 817.0 W/m2 CLR
15:33 25.1 °F 5.8 °F 1015.8 in North 11.1 mph 11.1 mph 29 % 0.0 in 807.0 W/m2 CLR
15:38 25.3 °F 7.0 °F 1015.8 in Calm     31 % 0.0 in 800.0 W/m2 CLR
15:43 25.4 °F 7.6 °F 1015.8 in NNE 6.4 mph 6.4 mph 32 % 0.0 in 788.0 W/m2 CLR
15:48 25.3 °F 7.9 °F 1015.8 in East 14.8 mph 14.8 mph 33 % 0.0 in 780.0 W/m2 CLR
15:53 25.0 °F 8.1 °F 1015.5 in SE 9.3 mph 9.3 mph 34 % 0.0 in 768.0 W/m2 CLR
15:58 24.8 °F 8.3 °F 1015.5 in North 9.3 mph 9.3 mph 35 % 0.0 in 763.0 W/m2 CLR
16:03 25.1 °F 8.5 °F 1015.5 in ESE 11.3 mph 11.3 mph 35 % 0.0 in 754.0 W/m2 CLR
16:08 25.1 °F 8.9 °F 1015.5 in SE 11.1 mph 11.1 mph 36 % 0.0 in 744.0 W/m2 CLR
16:13 25.2 °F 8.2 °F 1015.1 in East 7.4 mph 7.4 mph 34 % 0.0 in 733.0 W/m2 CLR
16:18 25.2 °F 9.1 °F 1015.1 in East 11.1 mph 11.1 mph 36 % 0.0 in 719.0 W/m2 CLR
16:23 25.1 °F 8.9 °F 1015.1 in ENE 5.6 mph 5.6 mph 36 % 0.0 in 708.0 W/m2 CLR
16:28 25.1 °F 8.5 °F 1015.1 in NE 11.1 mph 11.1 mph 35 % 0.0 in 696.0 W/m2 CLR
16:33 25.3 °F 8.3 °F 1014.8 in NNE 7.4 mph 7.4 mph 34 % 0.0 in 691.0 W/m2 CLR
16:38 25.6 °F 8.9 °F 1014.8 in NE 14.5 mph 14.5 mph 35 % 0.0 in 675.0 W/m2 CLR
16:43 25.6 °F 8.9 °F 1014.8 in ENE 11.3 mph 11.3 mph 35 % 0.0 in 664.0 W/m2 CLR
16:48 25.7 °F 9.5 °F 1014.4 in ENE 9.3 mph 9.3 mph 36 % 0.0 in 647.0 W/m2 CLR
16:53 25.4 °F 9.7 °F 1014.4 in NE 7.4 mph 7.4 mph 37 % 0.0 in 636.0 W/m2 CLR
16:58 25.6 °F 9.4 °F 1014.4 in ENE 9.3 mph 9.3 mph 36 % 0.0 in 626.0 W/m2 CLR
17:03 25.7 °F 8.6 °F 1014.4 in ENE 12.9 mph 12.9 mph 34 % 0.0 in 613.0 W/m2 CLR
17:08 25.3 °F 8.8 °F 1014.4 in East 6.4 mph 6.4 mph 35 % 0.0 in 601.0 W/m2 CLR
17:13 25.2 °F 8.6 °F 1014.4 in East 7.4 mph 7.4 mph 35 % 0.0 in 585.0 W/m2 CLR
17:18 25.3 °F 8.8 °F 1014.1 in NE 11.3 mph 11.3 mph 35 % 0.0 in 573.0 W/m2 CLR
17:23 25.5 °F 8.9 °F 1014.1 in East 14.8 mph 14.8 mph 35 % 0.0 in 557.0 W/m2 CLR
17:28 25.6 °F 8.9 °F 1014.1 in NE 9.7 mph 9.7 mph 35 % 0.0 in 545.0 W/m2 CLR
17:33 25.8 °F 8.7 °F 1014.1 in ENE 9.3 mph 9.3 mph 34 % 0.0 in 529.0 W/m2 CLR
17:39 25.8 °F 9.2 °F 1014.1 in NE 4.8 mph 4.8 mph 35 % 0.0 in 515.0 W/m2 CLR
17:44 25.8 °F 9.2 °F 1014.1 in NNE 3.7 mph 3.7 mph 35 % 0.0 in 503.0 W/m2 CLR
17:49 25.8 °F 9.2 °F 1014.1 in NE 5.6 mph 5.6 mph 35 % 0.0 in 483.0 W/m2 CLR
17:54 25.7 °F 9.1 °F 1014.1 in ENE 5.6 mph 5.6 mph 35 % 0.0 in 469.0 W/m2 CLR
17:59 25.7 °F 9.9 °F 1014.1 in NNE 1.6 mph 1.6 mph 37 % 0.0 in 450.0 W/m2 CLR
18:04 25.8 °F 10.4 °F 1014.1 in Calm     38 % 0.0 in 431.0 W/m2 CLR
18:09 25.6 °F 10.2 °F 1014.1 in ENE 13.0 mph 13.0 mph 38 % 0.0 in 415.0 W/m2 CLR
18:14 25.1 °F 10.2 °F 1014.1 in ESE 8.0 mph 8.0 mph 39 % 0.0 in 397.0 W/m2 CLR
18:19 24.8 °F 9.9 °F 1014.1 in Calm     39 % 0.0 in 378.0 W/m2 CLR
18:24 24.8 °F 10.3 °F 1014.1 in Calm     40 % 0.0 in 360.0 W/m2 CLR
18:34 25.1 °F 10.2 °F 1014.1 in Calm     39 % 0.0 in 332.0 W/m2 CLR
18:39 25.5 °F 10.1 °F 1014.1 in ENE 3.7 mph 3.7 mph 38 % 0.0 in 316.0 W/m2 CLR
18:44 25.6 °F 10.9 °F 1014.1 in Calm   0.3 mph 40 % 0.0 in 297.0 W/m2 CLR
18:49 25.3 °F 10.7 °F 1014.1 in Calm     40 % 0.0 in 279.0 W/m2 CLR
18:54 25.1 °F 10.5 °F 1014.1 in Calm     40 % 0.0 in 260.0 W/m2 CLR
18:59 25.1 °F 10.6 °F 1014.1 in Calm     40 % 0.0 in 246.0 W/m2 CLR
19:04 25.0 °F 11.2 °F 1014.1 in Calm   1.3 mph 42 % 0.0 in 225.0 W/m2 CLR
19:09 24.8 °F 11.7 °F 1014.1 in ENE 5.6 mph 5.6 mph 44 % 0.0 in 206.0 W/m2 CLR
19:14 24.6 °F 11.8 °F 1014.1 in NE 5.6 mph 5.6 mph 45 % 0.0 in 192.0 W/m2 CLR
19:19 24.4 °F 11.7 °F 1014.1 in ENE 3.7 mph   45 % 0.0 in 176.0 W/m2 CLR
19:24 24.3 °F 11.9 °F 1014.1 in East 5.6 mph 5.6 mph 46 % 0.0 in 153.0 W/m2 CLR
19:29 24.1 °F 12.4 °F 1014.1 in ESE 11.1 mph 11.1 mph 48 % 0.0 in 137.0 W/m2 CLR
19:34 23.8 °F 12.4 °F 1014.1 in East 1.9 mph   49 % 0.0 in 121.0 W/m2 CLR
19:39 23.6 °F 12.6 °F 1014.1 in East 11.1 mph 11.1 mph 50 % 0.0 in 107.0 W/m2 CLR
19:44 23.3 °F 12.6 °F 1014.1 in ENE 7.4 mph 7.4 mph 51 % 0.0 in 90.0 W/m2 CLR
19:49 23.1 °F 12.7 °F 1014.1 in ENE 7.4 mph 7.4 mph 52 % 0.0 in 77.0 W/m2 FEW
19:54 23.0 °F 12.6 °F 1014.1 in Calm     52 % 0.0 in 65.0 W/m2 SCT
19:59 22.9 °F 12.5 °F 1014.1 in ENE 3.7 mph 3.7 mph 52 % 0.0 in 51.0 W/m2 SCT
20:04 22.7 °F 12.3 °F 1014.4 in East 5.6 mph 5.6 mph 52 % 0.0 in 40.0 W/m2 BKN
20:09 22.6 °F 13.1 °F 1014.4 in East 7.4 mph 7.4 mph 55 % 0.0 in 32.0 W/m2 BKN
20:14 22.2 °F 12.9 °F 1014.4 in ESE 11.3 mph 11.3 mph 56 % 0.0 in 25.0 W/m2 BKN
20:19 21.8 °F 13.2 °F 1014.4 in East 5.6 mph 5.6 mph 58 % 0.0 in 21.0 W/m2 BKN
20:24 21.6 °F 13.0 °F 1014.4 in Calm     58 % 0.0 in 16.0 W/m2 BKN
20:29 21.4 °F 12.8 °F 1014.4 in Calm     58 % 0.0 in 12.0 W/m2 BKN
20:34 21.3 °F 13.0 °F 1014.4 in Calm     59 % 0.0 in 9.0 W/m2 BKN
20:39 21.1 °F 13.1 °F 1014.4 in Calm     60 % 0.0 in 5.0 W/m2 OVC
20:44 20.9 °F 12.9 °F 1014.8 in Calm     60 % 0.0 in 0.0 W/m2 OVC
20:49 20.8 °F 13.0 °F 1014.8 in Calm     61 % 0.0 in 0.0 W/m2 OVC
20:54 20.6 °F 13.0 °F 1014.8 in Calm     62 % 0.0 in 0.0 W/m2 CLR
20:59 20.4 °F 12.9 °F 1015.1 in Calm     62 % 0.0 in 0.0 W/m2 CLR
21:04 20.2 °F 12.9 °F 1015.1 in Calm     63 % 0.0 in 0.0 W/m2 CLR
21:09 20.0 °F 12.7 °F 1015.1 in Calm     63 % 0.0 in 0.0 W/m2 CLR
21:14 19.9 °F 12.6 °F 1015.1 in Calm     63 % 0.0 in 0.0 W/m2 CLR
21:15 19.8 °F 12.6 °F 1015.1 in Calm     63 % 0.0 in 0.0 W/m2 CLR
21:20 19.7 °F 12.7 °F 1015.1 in Calm     64 % 0.0 in 0.0 W/m2 CLR
21:25 19.6 °F 12.6 °F 1015.1 in Calm     64 % 0.0 in 0.0 W/m2 CLR
21:30 19.4 °F 12.9 °F 1015.1 in Calm     66 % 0.0 in 0.0 W/m2 CLR
21:35 19.2 °F 12.7 °F 1015.5 in Calm     66 % 0.0 in 0.0 W/m2 CLR
21:40 18.9 °F 12.6 °F 1015.5 in Calm     67 % 0.0 in 0.0 W/m2 CLR
21:45 18.7 °F 12.7 °F 1015.5 in Calm     68 % 0.0 in 0.0 W/m2 CLR
21:50 18.5 °F 12.7 °F 1015.5 in Calm     69 % 0.0 in 0.0 W/m2 CLR
21:55 18.3 °F 12.3 °F 1015.5 in Calm     68 % 0.0 in 0.0 W/m2 CLR
22:00 18.0 °F 12.2 °F 1015.5 in Calm     69 % 0.0 in 0.0 W/m2 CLR
22:05 17.7 °F 12.1 °F 1015.5 in Calm     70 % 0.0 in 0.0 W/m2 CLR
22:10 17.5 °F 12.4 °F 1015.8 in Calm     72 % 0.0 in 0.0 W/m2 CLR
22:15 17.3 °F 12.2 °F 1015.8 in Calm     72 % 0.0 in 0.0 W/m2 CLR
22:20 16.9 °F 12.1 °F 1015.8 in Calm     73 % 0.0 in 0.0 W/m2 CLR
22:25 16.7 °F 11.8 °F 1015.8 in Calm     73 % 0.0 in 0.0 W/m2 CLR
22:30 16.5 °F 11.7 °F 1015.8 in Calm     73 % 0.0 in 0.0 W/m2 CLR
22:35 16.3 °F 11.5 °F 1015.8 in Calm     73 % 0.0 in 0.0 W/m2 CLR
22:40 16.1 °F 11.5 °F 1015.8 in Calm     74 % 0.0 in 0.0 W/m2 CLR
22:45 15.9 °F 11.3 °F 1015.8 in Calm     74 % 0.0 in 0.0 W/m2 CLR
22:50 15.7 °F 11.1 °F 1016.1 in Calm     74 % 0.0 in 0.0 W/m2 CLR
22:55 15.6 °F 11.2 °F 1016.1 in Calm     75 % 0.0 in 0.0 W/m2 CLR
23:00 15.5 °F 11.1 °F 1016.1 in Calm     75 % 0.0 in 0.0 W/m2 CLR
23:05 15.4 °F 11.0 °F 1016.1 in Calm     75 % 0.0 in 0.0 W/m2 CLR
23:10 15.2 °F 10.8 °F 1016.1 in Calm     75 % 0.0 in 0.0 W/m2 CLR
23:15 15.0 °F 10.6 °F 1016.1 in Calm     75 % 0.0 in 0.0 W/m2 CLR
23:20 14.8 °F 10.7 °F 1016.1 in Calm     76 % 0.0 in 0.0 W/m2 CLR
23:25 14.7 °F 10.5 °F 1016.1 in Calm     76 % 0.0 in 0.0 W/m2 CLR
23:30 14.5 °F 10.5 °F 1016.1 in Calm     77 % 0.0 in 0.0 W/m2 CLR
23:35 14.4 °F 10.4 °F 1016.1 in Calm     77 % 0.0 in 0.0 W/m2 CLR
23:40 14.3 °F 10.3 °F 1016.1 in Calm     77 % 0.0 in 0.0 W/m2 CLR
23:45 14.2 °F 10.2 °F 1016.1 in Calm     77 % 0.0 in 0.0 W/m2 CLR
23:50 14.1 °F 10.1 °F 1016.1 in Calm     77 % 0.0 in 0.0 W/m2 CLR
23:55 13.9 °F 9.9 °F 1016.1 in Calm     77 % 0.0 in 0.0 W/m2 CLR
Lo Temps de Massalio
Compliments of Weather Underground - 1.25 mb